www.pogodaiklimat.ru

Погода и климат >> Архив погоды >> Канада >> Нунавут >> Шеперд-Бей


ПОГОДА в Шеперд-Бее

  • Прогноз погоды в Шеперд-Бее
  • Монитор погоды в Шеперд-Бее

АРХИВ ПОГОДЫ в Шеперд-Бее

Время (UTC), дата Ветер
(напр.,м/с)
 
Видим.   Явления Облачность Т
(С)
Тd
(С)
f
(%)
Тe
(С)
Тes
(С)
Комфортность P
(гПа)
Po
(гПа)
Тmin
(С)
Tmax
(С)
R
(мм)
R24
(мм)
S
(см)
15 14.08 Ю 5 н/о 10/10 200 м
[]
+11.7 +10.8 94 +9 +9 1011.0 1005.6
18 14.08 Ю 5 н/о 10/10 1500 м
[]
+14.7 +9.5 71 +13 +13 1010.6 1005.2
21 14.08 З 3 н/о 10/10 1500 м
[]
+13.2 +10.4 83 +12 +12 1010.7 1005.3
00 15.08 З 2 н/о 10/10 1000 м
[]
+12.9 +9.4 79 +12 +12 1010.7 1005.3
03 15.08 В 2 н/о 10/10 1500 м
[]
+12.1 +10.5 90 +11 +11 1010.9 1005.5
06 15.08 ЮВ 3 н/о ясно +9.6 +9.3 98 +7 +7 1010.7 1005.3 +9.4 +15.1
09 15.08 ЮВ 3 н/о 10/10 1500 м
[]
+9.8 +9.5 98 +7 +7 1011.3 1005.9
12 15.08 ЮВ 3 н/о 10/10 1500 м
[]
+9.1 +9.0 99 +7 +7 1011.6 1006.2
15 15.08 Ю 2 н/о 10/10 100 м
[]
+11.9 +10.8 93 +11 +11 1011.7 1006.3
18 15.08 СЗ 2 н/о 5/0
[]
+14.1 +10.9 81 +14 +20 1011.5 1006.1
21 15.08 СЗ 4 н/о 3/3 1500 м
[]
+14.1 +10.4 78 +13 +15 1011.5 1006.1
00 16.08 СЗ 2 н/о 10/10 1000 м
[]
+14.5 +11.4 82 +14 +14 1011.8 1006.4
03 16.08 В 2 н/о 5/0 2000 м
[]
+12.9 +11.7 92 +12 +12 1011.7 1006.3
06 16.08 ЮВ 3 н/о ясно +10.5 +9.7 95 +8 +8 1011.5 1006.1 +8.7 +15.7
09 16.08 ЮВ 3 н/о 10/0
[]
+9.2 +8.5 95 +7 +7 1011.9 1006.5
12 16.08 ЮВ 3 н/о 10/0
[]
+9.8 +8.9 94 +8 +8 1011.9 1006.5
15 16.08 Ю 4 н/о ясно +13.1 +8.9 76 +12 +15 1011.9 1006.5
18 16.08 Ю 5 н/о 9/9 600 м
[]
+15.2 +8.6 65 +14 +14 1011.8 1006.4
21 16.08 Ю 5 н/о 10/10 1000 м
[]
+14.6 +7.0 60 +13 +13 1011.7 1006.3
00 17.08 Ю 4 н/о 10/10 1000 м
[]
+15.0 +8.7 66 +14 +14 1011.7 1006.3
03 17.08 В 2 н/о 10/10 1000 м
[]
+12.2 +10.6 90 +11 +11 1012.0 1006.6
06 17.08 ЮВ 3 н/о 3/3 1500 м
[]
+9.4 +9.0 97 +7 +7 1012.2 1006.8 +8.7 +15.3
09 17.08 ЮВ 2 н/о 10/10 1000 м
[]
+9.1 +8.7 97 +7 +7 1012.9 1007.5
12 17.08 ЮВ 3 н/о ясно +9.2 +8.7 97 +7 +7 1013.4 1008.0
15 17.08 Ю 4 н/о 5/0 2000 м
[]
+12.6 +10.3 86 +11 +13 1014.1 1008.7
18 17.08 ЮЗ 2 н/о 5/5 1500 м
[]
+15.7 +10.8 73 +16 +19 1014.9 1009.5
21 17.08 З 3 н/о ясно +16.2 +10.1 67 +16 +20 1015.5 1010.1
00 18.08 З 2 н/о ясно +15.2 +10.5 74 +15 +16 1015.9 1010.5
03 18.08 З 1 н/о 9/9 1500 м
[]
+12.3 +11.6 95 +12 +12 1016.3 1010.9
06 18.08 З 2 н/о 5/5 1000 м
[]
+10.9 +10.9 100 +9 +9 1016.7 1011.3 +7.3 +16.9
12 18.08 ЮВ 2 н/о 10/10 50 м
[]
+9.7 +9.8 100 +8 +8 1017.6 1012.2
15 18.08 Ю 2 н/о 10/10 50 м
[]
+10.8 +10.7 99 +10 +10 1018.0 1012.6
18 18.08 Ю 1 н/о 10/10 300 м
[]
+13.5 +10.1 80 +14 +14 1018.1 1012.7
21 18.08 З 2 н/о 10/10 300 м
[]
+13.8 +10.6 81 +13 +13 1018.7 1013.3
00 19.08 СЗ 4 н/о 5/5 1500 м
[]
+13.6 +11.5 87 +12 +12 1018.5 1013.1
03 19.08 С 4 н/о ясно +11.7 +11.4 98 +10 +10 1018.6 1013.2
06 19.08 В 4 н/о ясно +10.6 +9.0 90 +8 +8 1018.3 1012.9 +8.9 +15.0
09 19.08 В 3 н/о 9/9 1500 м
[]
+8.3 +8.2 99 +5 +5 1019.4 1013.9
12 19.08 В 4 н/о ясно +9.5 +6.5 82 +7 +7 1019.3 1013.9
15 19.08 ЮВ 3 н/о ясно +13.3 +6.5 63 +12 +15 1019.6 1014.2
18 19.08 В 2 н/о ясно +15.5 +5.8 52 +16 +23 1019.9 1014.5
21 19.08 В 2 н/о 5/5 1000 м
[]
+17.1 +5.0 45 +17 +20 1019.8 1014.4
00 20.08 В 6 н/о ясно +15.1 +8.7 66 +14 +14 1020.4 1015.0
03 20.08 В 5 н/о 9/9 1500 м
[]
+11.3 +8.5 83 +9 +9 1021.0 1015.6
06 20.08 В 5 н/о 9/9 1000 м
[]
+8.9 +7.2 89 +5 +5 1021.8 1016.3 +7.9 +17.5
09 20.08 В 4 н/о 10/10 1000 м
[]
+7.4 +5.2 86 +4 +4 1023.0 1017.5
12 20.08 СВ 5 н/о 10/10 1000 м
[]
+7.2 +4.7 84 +3 +3 1023.6 1018.1
15 20.08 В 7 н/о ясно +9.5 +4.8 72 +6 +7 1024.2 1018.7
18 20.08 СВ 5 н/о ясно +11.1 +4.7 65 +9 +12 1024.6 1019.1
21 20.08 СВ 4 н/о 9/9 600 м
[]
+11.4 +5.1 65 +10 +10 1025.0 1019.5
00 21.08 В 3 н/о ясно +10.7 +4.4 65 +9 +10 1024.8 1019.3
03 21.08 ЮВ 1 н/о ясно +9.7 +6.0 78 +9 +9 1024.7 1019.2
06 21.08 ЮВ 2 н/о 5/0
[]
+8.2 +5.5 83 +6 +6 1024.1 1018.6 +7.1 +12.1
09 21.08 ЮВ 3 н/о 10/0
[]
+6.2 +5.4 95 +3 +3 1023.3 1017.8
12 21.08 ЮВ 4 н/о 10/0
[]
+6.6 +5.4 92 +3 +3 1022.4 1016.9

 

Местоположение метеостанции Шеперд-Бей (Нунавут, Канада): широта 68.82 долгота -93.43 высота над уровнем моря 42 м.

В архиве по умолчанию представлена погода в Шеперд-Бее за последнюю неделю. Архивные данные за месяц целиком и за предыдущие месяцы, начиная с января 2011 года, Вы можете получить, выбрав интересующий диапазон дат из раскрывающегося списка и нажав кнопку "Ввод!".


*Определитесь, кто Вы:
робот инопланетянин человек

Внимание! Время в таблицах - всемирное. Для получения местного времени необходимо прибавить поправку, которая равна -6 ч.

Смотрите также архив погоды в соседних городах и на ближайших метеорологических станциях:

Погода в Талойоаке (Нунавут, Канада) (81 км)
Погода в Джойа Хейвен (Нунавут, Канада) (100 км)
Погода в Кугааруке (Нунавут, Канада) (150 км)
Погода в Кам Фор (Нунавут, Канада) (157 км)
Погода на Острове Хат (Нунавут, Канада) (273 км)
Погода в Глеичене (Альберта, Канада) (332 км)
Погода в Вейджер Бэй (Нунавут, Канада) (369 км)
Погода в Кеймбридж-Бее (Нунавут, Канада) (466 км)
Погода в Кембридж Бэй (Нунавут, Канада) (466 км)
Погода в Холл Бич (Нунавут, Канада) (489 км)

Пояснения к столбцам:

Ветер - указаны скорость ветра в м/с - средняя за 10 мин, порывы в срок и между сроками (в фигурных скобках) и направление, откуда дует ветер: С - северный, СВ - северо-восточный, В - восточный, ЮВ - юго-восточный, Ю - южный, ЮЗ - юго-западный, З - западный, СЗ - северо-западный.
Видимость - горизонтальная дальность видимости в метрах или километрах. При видимости от 1 до 10 км при отсутствии осадков обычно наблюдается дымка, при ухудшении видимости до 1 км и менее - туман. В сухую погоду видимость может ухудшаться дымом, пылью или мглою.
Явления - указаны атмосферные явления, наблюдавшиеся в срок или в последний час перед сроком; фигурными скобками обозначены явления, наблюдавшиеся между сроками (за 1-3 часа до срока); квадратными скобками обозначены град или гололедные отложения с указанием их диаметра в мм.
Облачность - указаны через наклонную черту общая и нижняя облачность в баллах и высота нижней границы облаков в метрах; квадратными скобками обозначены формы облаков: Ci - перистые, Cs - перисто-слоистые, Cc - перисто-кучевые, Ac - высококучевые, As - высокослоистые, Sc - слоисто-кучевые, Ns - слоисто-дождевые, Cu - кучевые, Cb - кучево-дождевые. Подробнее классификацию облаков см. в Атласе облаков (PDF).
T - Температура воздуха - температура, измеренная на высоте 2 м над землей.
Td - Температура точки росы - температура, при понижении до которой содержащийся в воздухе водяной пар достигнет насыщения.
f - Относительная влажность воздуха - влажноcть воздуха, измеренная на высоте 2 м над землей.
Te - Эффективная температура - температура, которую ощущает одетый по сезону человек в тени. Характеристика душности погоды. При расчете учитывается влияние влажности воздуха и скорости ветра на теплоощущения человека.
Tes - Эффективная температура на солнце - температура, которую ощущает человек, с поправкой на солнечный нагрев. Характеристика знойности погоды. Зависит от высоты солнца над горизонтом, облачности и скорости ветра. Ночью, в пасмурную погоду, а также при ветре 12 м/с и более поправка равна нулю.
P - Атмосферное давление - приведенное к уровню моря атмосферное давление.
Po - Атмосферное давление - измеренное на уровне метеостанции атмосферное давление.
Tmin - Минимальная температура - минимум температуры воздуха на высоте 2 м над землей.
Tmax - Максимальная температура - максимум температуры воздуха на высоте 2 м над землей.
R - Количество осадков - Количество выпавших осадков за период времени, мм. При наведении курсора мыши на число - период времени, за который выпало указанное количество осадков.
R24 - Количество осадков - Количество выпавших осадков за 24 часа, мм.
S - Снежный покров - Высота снежного покрова, см. При наведении курсора мыши на число - состояние снежного покрова и степень покрытия местности в баллах.